TIANMU-1 16

Last updated on Tue Sep 22 2026 00:02:54 GMT+0000 (Coordinated Universal Time)

1 58701U 24004B 26264.66726049 .00003633 00000+0 13775-3 0 9991 2 58701 97.4621 90.0847 0006073 23.2582 336.8931 15.27512404150503
UTC large
Height (km)
Speed (km/s)
/
Latitude / Longitude
Inclination (degrees)
Orbital Period (minutes)
Azimuth
Elevation
Range (km)
Doppler Factor

Next 0 passes for location: London (51.5072 / 0.1276)

No passes found over London.
TIANMU-1 16